| time (UTC) | temp F | wind direction | speed MPH | gust MPH | rain 1hr in | rain 24hr in | rain mn in | humidity % | barometer mb |
| 20260505100059 | 73 | 196 | 5.0 | 9.0 | 0.00 | 0.00 | 0.00 | 91 | 1008.1 |
| 20260505094553 | 74 | 197 | 5.0 | 8.0 | 0.00 | 0.00 | 0.00 | 91 | 1008.3 |
| 20260505093056 | 74 | 195 | 5.0 | 10.0 | 0.00 | 0.00 | 0.00 | 91 | 1008.5 |
| 20260505091551 | 74 | 166 | 6.0 | 11.0 | 0.00 | 0.00 | 0.00 | 91 | 1008.5 |
| 20260505090039 | 74 | 188 | 6.0 | 11.0 | 0.00 | 0.00 | 0.00 | 90 | 1008.6 |
| 20260505084533 | 74 | 167 | 7.0 | 11.0 | 0.00 | 0.00 | 0.00 | 90 | 1008.4 |
| 20260505083025 | 74 | 166 | 5.0 | 10.0 | 0.00 | 0.00 | 0.00 | 90 | 1008.5 |
| 20260505081522 | 74 | 217 | 6.0 | 12.0 | 0.00 | 0.00 | 0.00 | 89 | 1008.6 |
| 20260505080017 | 74 | 156 | 7.0 | 10.0 | 0.00 | 0.00 | 0.00 | 89 | 1008.8 |
| 20260505074512 | 73 | 171 | 6.0 | 13.0 | 0.00 | 0.00 | 0.00 | 89 | 1008.8 |
| 20260505073005 | 73 | 203 | 5.0 | 12.0 | 0.00 | 0.00 | 0.00 | 89 | 1008.9 |
| 20260505071510 | 73 | 185 | 6.0 | 11.0 | 0.00 | 0.00 | 0.00 | 89 | 1009.0 |
| 20260505070001 | 73 | 178 | 7.0 | 11.0 | 0.00 | 0.00 | 0.00 | 89 | 1009.2 |
| 20260505064558 | 73 | 167 | 6.0 | 10.0 | 0.00 | 0.00 | 0.00 | 89 | 1009.5 |
| 20260505063027 | 73 | 173 | 4.0 | 8.0 | 0.00 | 0.00 | 0.00 | 89 | 1009.8 |
| 20260505061525 | 72 | 160 | 4.0 | 9.0 | 0.00 | 0.00 | 0.00 | 89 | 1009.9 |
| 20260505060037 | 72 | 198 | 5.0 | 10.0 | 0.00 | 0.00 | 0.00 | 88 | 1009.9 |
| 20260505054522 | 73 | 165 | 5.0 | 11.0 | 0.00 | 0.00 | 0.00 | 88 | 1010.0 |
| 20260505053024 | 73 | 155 | 5.0 | 9.0 | 0.00 | 0.00 | 0.00 | 87 | 1009.9 |
| 20260505051525 | 73 | 160 | 7.0 | 12.0 | 0.00 | 0.00 | 0.00 | 87 | 1010.1 |
| 20260505041540 | 72 | 175 | 3.0 | 6.0 | 0.00 | 0.00 | 0.00 | 87 | 1010.5 |
| 20260505040041 | 72 | 170 | 3.0 | 7.0 | 0.00 | 0.00 | 0.00 | 87 | 1010.6 |
| 20260505034540 | 72 | 163 | 3.0 | 8.0 | 0.00 | 0.00 | 0.00 | 86 | 1010.8 |
| 20260505033036 | 72 | 144 | 4.0 | 8.0 | 0.00 | 0.00 | 0.00 | 86 | 1010.7 |
| 20260505031532 | 72 | 161 | 5.0 | 8.0 | 0.00 | 0.00 | 0.00 | 85 | 1010.7 |
| 20260505030032 | 73 | 165 | 5.0 | 7.0 | 0.00 | 0.00 | 0.00 | 85 | 1010.7 |
| 20260505024528 | 73 | 160 | 5.0 | 8.0 | 0.00 | 0.00 | 0.00 | 85 | 1010.7 |
| 20260505023026 | 73 | 157 | 5.0 | 9.0 | 0.00 | 0.00 | 0.00 | 84 | 1010.7 |
| 20260505021528 | 73 | 158 | 5.0 | 8.0 | 0.00 | 0.00 | 0.00 | 84 | 1010.6 |
| 20260505020021 | 73 | 160 | 4.0 | 9.0 | 0.00 | 0.00 | 0.00 | 84 | 1010.6 |
| 20260505014516 | 73 | 158 | 6.0 | 10.0 | 0.00 | 0.00 | 0.00 | 83 | 1010.4 |
| 20260505013013 | 73 | 146 | 6.0 | 9.0 | 0.00 | 0.00 | 0.00 | 82 | 1010.4 |
| 20260505011513 | 74 | 163 | 5.0 | 9.0 | 0.00 | 0.00 | 0.00 | 83 | 1010.4 |
| 20260505010011 | 74 | 163 | 6.0 | 14.0 | 0.00 | 0.00 | 0.00 | 82 | 1010.2 |
| 20260505004519 | 74 | 159 | 10.0 | 15.0 | 0.00 | 0.00 | 0.00 | 81 | 1010.1 |
| 20260505003010 | 74 | 154 | 10.0 | 16.0 | 0.00 | 0.00 | 0.00 | 80 | 1010.2 |
| 20260505001540 | 75 | 150 | 10.0 | 16.0 | 0.00 | 0.00 | 0.00 | 80 | 1010.1 |
| 20260505000051 | 75 | 164 | 11.0 | 16.0 | 0.00 | 0.00 | 0.00 | 79 | 1010.3 |
| 20260504234535 | 75 | 146 | 9.0 | 15.0 | 0.00 | 0.00 | 0.00 | 80 | 1010.3 |
| 20260504233036 | 75 | 160 | 10.0 | 16.0 | 0.00 | 0.00 | 0.00 | 79 | 1010.5 |
| 20260504231531 | 75 | 153 | 11.0 | 14.0 | 0.00 | 0.00 | 0.00 | 79 | 1010.7 |
| 20260504230030 | 75 | 149 | 8.0 | 14.0 | 0.00 | 0.00 | 0.00 | 79 | 1010.9 |
| 20260504224527 | 75 | 148 | 10.0 | 16.0 | 0.00 | 0.00 | 0.00 | 79 | 1010.8 |
| 20260504223024 | 75 | 165 | 10.0 | 15.0 | 0.00 | 0.00 | 0.00 | 78 | 1011.2 |
| 20260504221523 | 75 | 145 | 9.0 | 17.0 | 0.00 | 0.00 | 0.00 | 78 | 1011.3 |
| 20260504220037 | 76 | 162 | 10.0 | 17.0 | 0.00 | 0.00 | 0.00 | 77 | 1011.4 |
| 20260504214525 | 76 | 122 | 10.0 | 15.0 | 0.00 | 0.00 | 0.00 | 78 | 1011.5 |
| 20260504213018 | 76 | 137 | 9.0 | 15.0 | 0.00 | 0.00 | 0.00 | 75 | 1011.6 |
| 20260504211525 | 76 | 165 | 9.0 | 15.0 | 0.00 | 0.00 | 0.00 | 77 | 1011.7 |
| 20260504210016 | 76 | 229 | 7.0 | 15.0 | 0.00 | 0.00 | 0.00 | 76 | 1011.9 |
| 20260504204544 | 76 | 174 | 9.0 | 14.0 | 0.00 | 0.00 | 0.00 | 77 | 1012.1 |
| 20260504203043 | 76 | 120 | 8.0 | 16.0 | 0.00 | 0.00 | 0.00 | 75 | 1012.2 |
| 20260504201550 | 76 | 161 | 9.0 | 15.0 | 0.00 | 0.00 | 0.00 | 75 | 1012.5 |
| 20260504200038 | 77 | 134 | 7.0 | 16.0 | 0.00 | 0.00 | 0.00 | 73 | 1012.6 |
| 20260504194537 | 77 | 165 | 9.0 | 13.0 | 0.00 | 0.00 | 0.00 | 73 | 1012.6 |
| 20260504193033 | 77 | 179 | 7.0 | 15.0 | 0.00 | 0.00 | 0.00 | 73 | 1013.1 |
| 20260504191503 | 77 | 213 | 9.0 | 16.0 | 0.00 | 0.00 | 0.00 | 72 | 1013.2 |
| 20260504190002 | 77 | 176 | 9.0 | 16.0 | 0.00 | 0.00 | 0.00 | 72 | 1013.3 |
| 20260504184534 | 77 | 171 | 8.0 | 16.0 | 0.00 | 0.00 | 0.00 | 69 | 1013.2 |
| 20260504183028 | 77 | 186 | 5.0 | 14.0 | 0.00 | 0.00 | 0.00 | 71 | 1013.3 |
| 20260504181531 | 76 | 171 | 9.0 | 14.0 | 0.00 | 0.00 | 0.00 | 73 | 1013.9 |
| 20260504180023 | 76 | 143 | 9.0 | 16.0 | 0.00 | 0.00 | 0.00 | 71 | 1014.0 |
| 20260504174520 | 76 | 163 | 8.0 | 17.0 | 0.00 | 0.00 | 0.00 | 73 | 1014.0 |
| 20260504173019 | 76 | 154 | 8.0 | 16.0 | 0.00 | 0.00 | 0.00 | 72 | 1014.4 |
| 20260504171547 | 76 | 169 | 8.0 | 15.0 | 0.00 | 0.00 | 0.00 | 71 | 1014.4 |